Regional Weather Roundup
Issued by NWS

Home | Current Version | Previous Version | Graphics & Text | Print | Product List | Glossary On
Versions: 1 2 3 4 5 6 7 8 9 10 11 12 13 14 15 16 17 18 19 20 21 22 23 24 25 26 27 28 29 30 31 32 33 34 35 36 37 38 39 40 41 42 43 44 45 46 47 48 49 50
063
ASUS43 KLMK 100110
RWRKY
KENTUCKY REGIONAL WEATHER ROUNDUP
NATIONAL WEATHER SERVICE LOUISVILLE KY
800 PM EST FRI DEC 09 2016

NOTE "FAIR" INDICATES FEW OR NO CLOUDS BELOW 12,000 FEET
WITH NO SIGNIFICANT WEATHER AND/OR OBSTRUCTIONS TO VISIBILITY.

KYZ001>023-026-027-061>063-070>075-100200-
WESTERN AND SOUTH CENTRAL KENTUCKY

CITY           SKY/WX    TMP DP  RH WIND       PRES   REMARKS
PADUCAH        CLEAR     24  14  65 W3        30.57R
HENDERSON      CLEAR     27  12  54 N5        30.57F WCI  21
OWENSBORO      CLEAR     25  17  72 N5        30.58S WCI  19
HOPKINSVILLE   CLEAR     28  15  56 NW3       30.55R
BOWLING GREEN  CLEAR     26  15  63 NE3       30.57R
GLASGOW        CLEAR     25  17  74 N6        30.56R WCI  18
$$

KYZ024-025-028>034-038-045-046-053-100200-
NORTH CENTRAL KENTUCKY

CITY           SKY/WX    TMP DP  RH WIND       PRES   REMARKS
LOUISVILLE/SDF MOCLDY    26  11  52 NW6       30.58  WCI  19
LOUISVILLE/LOU CLOUDY    26  13  57 NW5       30.58S WCI  20
FORT KNOX      CLOUDY    21  14  73 N1        30.54S
$$

KYZ035>037-039>044-047>052-055>060-089>105-100200-
NORTHEAST KENTUCKY

CITY           SKY/WX    TMP DP  RH WIND       PRES   REMARKS
LEXINGTON      CLOUDY    24  12  60 NW6       30.55R WCI  17
COVINGTON      CLOUDY    23  14  68 W8        30.55R WCI  14
FRANKFORT      CLOUDY    25  12  58 NW6       30.56R WCI  18
$$

KYZ054-064>069-076>088-106>120-100200-
SOUTHEAST KENTUCKY

CITY           SKY/WX    TMP DP  RH WIND       PRES   REMARKS
JACKSON        CLEAR     21  12  68 NW3       30.50R
LONDON         CLOUDY    24  14  65 CALM      30.52R
SOMERSET       PTCLDY    21  14  73 CALM      30.55F
MIDDLESBORO    CLEAR     23  18  81 CALM      30.52S
MONTICELLO     CLEAR     18  14  84 W6        30.55S WCI  10
$$





USA.gov is the U.S. government's official web portal to all federal, state and local government web resources and services.